M-SEL

operational
NORAD ID: 63231 Int'l Des: 2025-052 Owner: MITRE Country: US
LEOCIRCULARRETROGRADESSO

关于 M-SEL

正在加载描述...

实时位置

正在加载3D地球...

即将过境

高度历史

Altitude vs Time

uPlot chart will show altitude changes over time

两行轨道根数

1 63231U 25052X 26063.49823610 .00015436 00000-0 63353-3 0 9991
2 63231 97.4049 318.2425 0005802 140.7850 219.3809 15.24299624 53964
Epoch: Mar 4, 2026 • Age: 21 hours

当前状态

高度 499.8 km
速度 7.61 km/s
星下点 -23.04°S, 21.99°E
发射日期 Mar 15, 2025
运行时间 0.9 years
类型 other

技术详情

分类 Payload
质量 32.00 kg
干质量 32.00 kg
总质量 32.00 kg
长度 0.80 m
直径 0.40 m
跨度 0.40 m
形状 Box
制造商 ADIG
平台类型 Corvus-Micro
阶段状态 In Orbit
所有者/国家 MITRE/US

大型星座

Loading constellations...